[[{"header":{"parameterUnit":"m.s-1","parameterCategory":2,"la1":30.2991,"la2":30.254,"lo1":-89.0895,"lo2":-89.0444,"dy":0.0017,"dx":0.0017,"nx":28,"ny":28,"refTime":"2024-05-20T21:00:00:Z","depth":"0","parameterNumber":2,"parameterNumberName":"U-component_of_CURRENTS"},"data":[0,0,0,0,0,0,0,0,0,0,0,0,0,0,0,0,0,0,0,0,0,0,0,0,0,0,0,0,0,0,0,0,0,0,0,0,0,0,0,0,0,0,0,0,0,0,0,0,0,0,0,0,0,0,0,0,0,0,-0.2326,-0.2327,0,-0.2438,-0.244,-0.2441,-0.2466,-0.2464,-0.2463,-0.2462,-0.257,-0.2574,-0.2578,0,0,0,0,0,0,0,0,0,0,0,0,0,-0.2211,-0.2212,-0.2326,-0.2327,-0.2328,-0.2438,-0.244,-0.2442,-0.2466,-0.2464,-0.2463,-0.2461,-0.2569,-0.2573,-0.2578,0,0,0,0,0,0,0,0,0,0,0,0,0,-0.2289,-0.2213,-0.2326,-0.235,-0.2353,-0.2437,-0.244,-0.2442,-0.2466,-0.2464,-0.2462,-0.2461,-0.2567,-0.2573,-0.2579,-0.2652,0,0,-0.2597,-0.26,0,0,0,0,0,0,0,0,-0.2285,-0.2294,-0.2346,-0.2349,-0.2352,-0.2432,-0.2438,-0.2511,-0.2466,-0.2428,-0.2462,-0.246,-0.2522,-0.2532,-0.2563,-0.2657,-0.2662,-0.2598,-0.2601,-0.2604,-0.2606,0,0,0,0,0,0,0,-0.2279,-0.229,-0.2375,-0.2347,-0.2351,-0.2382,-0.2391,-0.2453,-0.2487,-0.2431,-0.2432,-0.2438,-0.2524,-0.2557,-0.2565,-0.2663,-0.2598,-0.2603,-0.2607,-0.2609,-0.2754,-0.2755,0,0,0,0,0,0,-0.2255,-0.2285,-0.2371,-0.2378,-0.2308,-0.2384,-0.2395,-0.2412,-0.2486,-0.2495,-0.244,-0.2439,-0.2548,-0.2558,-0.2569,-0.2569,-0.2604,-0.2609,-0.2613,-0.2754,-0.2754,-0.2755,0,0,0,0,0,0,-0.2252,-0.2262,-0.2366,-0.2329,-0.2344,-0.2387,-0.2407,-0.2415,-0.2432,-0.2492,-0.2501,-0.2445,-0.2547,-0.2561,-0.2622,-0.2576,-0.2612,-0.2618,-0.2754,-0.2754,-0.2755,-0.2627,0,0,0,0,0,0,-0.2249,-0.2261,-0.2266,-0.2328,-0.2345,-0.2386,-0.2409,-0.2418,-0.2437,-0.2437,-0.2501,-0.251,-0.2546,-0.2613,-0.2628,-0.2585,-0.2622,-0.2753,-0.2754,-0.2754,-0.2631,-0.2623,-0.2616,0,0,0,0,0,-0.2245,-0.2253,-0.2266,-0.2276,-0.235,-0.2385,-0.2397,-0.2425,-0.2439,-0.2436,-0.2498,-0.2507,-0.2625,-0.262,-0.2637,-0.2594,-0.2753,-0.2754,-0.2754,-0.2634,-0.2624,-0.2616,0,0,0,0,0,0,-0.2204,-0.2258,-0.2273,-0.2296,-0.2323,-0.2386,-0.2395,-0.242,-0.2472,-0.2476,-0.2534,-0.2549,-0.2578,-0.2625,-0.2617,-0.2641,-0.2682,-0.2686,-0.2584,-0.2576,-0.2569,-0.254,-0.2627,0,0,0,0,0,-0.2199,-0.2216,-0.2265,-0.2279,-0.2294,-0.2346,-0.2366,-0.2385,-0.2438,-0.2457,-0.25,-0.2554,-0.2601,-0.2618,-0.267,-0.2702,-0.2709,-0.2682,-0.2674,-0.2667,-0.2658,-0.2643,-0.2632,-0.2757,-0.2757,-0.2757,0,0,-0.2185,-0.2217,-0.2225,-0.2271,-0.2302,-0.2321,-0.2354,-0.2376,-0.2382,-0.2465,-0.2489,-0.2538,-0.2609,-0.2632,-0.2646,-0.2658,-0.2634,-0.2668,-0.2661,-0.2656,-0.2642,-0.263,-0.2618,-0.2757,-0.2757,-0.2757,0,0,-0.2166,-0.2196,-0.2204,-0.2228,-0.2264,-0.2296,-0.2295,-0.2347,-0.2356,-0.2399,-0.2449,-0.2469,-0.2555,-0.2571,-0.26,-0.2592,-0.2603,-0.2607,-0.2535,-0.2519,-0.2507,-0.2497,-0.2468,-0.2457,-0.2593,-0.2593,-0.2593,0,-0.2144,-0.2169,-0.2208,-0.2222,-0.2237,-0.2278,-0.2287,-0.2308,-0.2367,-0.2376,-0.2385,-0.2476,-0.2515,-0.2535,-0.2521,-0.2565,-0.2567,-0.2553,-0.2503,-0.2494,-0.2486,-0.2459,-0.2448,-0.2587,-0.2587,-0.2588,-0.2589,0,-0.2135,-0.2153,-0.2158,-0.219,-0.221,-0.222,-0.2254,-0.2266,-0.2284,-0.2304,-0.2319,-0.2371,-0.242,-0.2417,-0.2468,-0.2432,-0.2455,-0.2496,-0.251,-0.2464,-0.244,-0.2431,-0.2578,-0.258,-0.2582,-0.2583,0,0,-0.2088,-0.214,-0.2141,-0.2155,-0.2193,-0.2212,-0.2217,-0.2236,-0.2248,-0.2251,-0.2256,-0.228,-0.2296,-0.233,-0.2369,-0.2338,-0.2262,-0.2383,-0.2385,-0.2326,-0.2218,-0.2156,-0.214,-0.2295,-0.2294,-0.2292,-0.2215,0,-0.2064,-0.2085,-0.2117,-0.2129,-0.2143,-0.218,-0.2189,-0.2209,-0.2227,-0.224,-0.2235,-0.2264,-0.2267,-0.229,-0.2251,-0.2295,-0.2237,-0.2279,-0.2298,-0.2298,-0.2224,-0.2127,-0.203,-0.1947,-0.2206,-0.2204,-0.2203,0,-0.2037,-0.2061,-0.2071,-0.2113,-0.2123,-0.2132,-0.2165,-0.2179,-0.2199,-0.2213,-0.2207,-0.2236,-0.2205,-0.2217,-0.2173,-0.2207,-0.2189,-0.2188,-0.2186,-0.2166,-0.2217,-0.2044,-0.192,-0.1901,-0.2189,-0.219,-0.2191,0,-0.1987,-0.2024,-0.2032,-0.2045,-0.2098,-0.2105,-0.2128,-0.2161,-0.2177,-0.2195,-0.2208,-0.219,-0.2189,-0.2156,-0.2141,-0.2166,-0.2088,-0.2131,-0.2038,-0.2035,-0.1974,-0.1967,-0.1808,-0.2058,-0.2058,-0.2058,-0.2058,0,-0.1947,-0.1952,-0.201,-0.2015,-0.2028,-0.2075,-0.209,-0.2117,-0.2153,-0.2158,-0.2184,-0.2176,-0.2174,-0.2143,-0.2122,-0.2034,-0.2063,-0.1989,-0.1996,-0.1927,-0.1917,-0.1921,-0.1962,-0.2055,-0.2056,-0.2056,-0.2057,0,-0.1883,-0.1921,-0.1935,-0.1988,-0.2003,-0.2011,-0.2066,-0.2077,-0.2122,-0.2131,-0.2134,-0.2156,-0.2103,-0.2082,-0.2039,-0.2001,-0.19,-0.1903,-0.1811,-0.1805,-0.1696,-0.1736,-0.1621,-0.158,-0.1776,-0.1774,-0.1772,0,-0.1849,-0.185,-0.1903,-0.1908,-0.1927,-0.1955,-0.197,-0.2041,-0.2055,-0.2102,-0.209,-0.207,-0.2012,-0.1919,-0.1849,-0.1759,-0.179,-0.1643,-0.1654,-0.163,-0.1681,-0.1722,-0.17,-0.1521,-0.1518,-0.1515,-0.1512,0,-0.1775,-0.1794,-0.1807,-0.1826,-0.1841,-0.1864,-0.1891,-0.191,-0.1978,-0.1987,-0.1962,-0.1925,-0.1834,-0.1695,-0.1608,-0.1558,-0.1599,-0.1576,-0.1574,-0.1462,-0.1475,-0.146,-0.1641,-0.1484,-0.1487,-0.1489,-0.1491,-0.1492,-0.1703,-0.1697,-0.1712,-0.1716,-0.1738,-0.1736,-0.1721,-0.1763,-0.1768,-0.1746,-0.1788,-0.1679,-0.1596,-0.1439,-0.1392,-0.1287,-0.1368,-0.1257,-0.1304,-0.1345,-0.1299,-0.1403,-0.125,-0.1251,-0.1252,-0.1253,-0.1254,0,-0.1597,-0.1595,-0.1599,-0.1596,-0.1564,-0.1615,-0.1634,-0.1592,-0.1555,-0.1526,-0.1477,-0.135,-0.1242,-0.1194,-0.1099,-0.1039,-0.1039,-0.1036,-0.1071,-0.1061,-0.1148,-0.1129,-0.0915,-0.0915,-0.0915,-0.0915,-0.0915,-0.0915,-0.1538,-0.1495,-0.1498,-0.1408,-0.1403,-0.1331,-0.1316,-0.1278,-0.1232,-0.1087,-0.0999,-0.093,-0.0958,-0.1049,-0.0987,-0.0943,-0.0947,-0.0906,-0.0962,-0.1037,-0.1062,-0.1086,-0.1073,-0.085,-0.0851,-0.0814,-0.0814,-0.0814]},{"header":{"parameterUnit":"m.s-1","parameterCategory":2,"la1":30.2991,"la2":30.254,"lo1":-89.0895,"lo2":-89.0444,"dy":0.0017,"dx":0.0017,"nx":28,"ny":28,"refTime":"2024-05-20T21:00:00:Z","depth":"0","parameterNumber":3,"parameterNumberName":"V-component_of_CURRENTS"},"data":[0,0,0,0,0,0,0,0,0,0,0,0,0,0,0,0,0,0,0,0,0,0,0,0,0,0,0,0,0,0,0,0,0,0,0,0,0,0,0,0,0,0,0,0,0,0,0,0,0,0,0,0,0,0,0,0,0,0,-0.0251,-0.025,0,-0.014,-0.0138,-0.0136,-0.0043,-0.0042,-0.0042,-0.0042,0.0243,0.025,0.0257,0,0,0,0,0,0,0,0,0,0,0,0,0,-0.0271,-0.0272,-0.0251,-0.025,-0.0249,-0.014,-0.0138,-0.0136,-0.0043,-0.0042,-0.0042,-0.0041,0.0241,0.0249,0.0258,0,0,0,0,0,0,0,0,0,0,0,0,0,-0.0216,-0.0272,-0.0251,-0.0194,-0.0189,-0.0141,-0.0138,-0.0135,-0.0043,-0.0042,-0.0042,-0.0041,0.0238,0.0249,0.0259,0.0313,0,0,0.0292,0.0297,0,0,0,0,0,0,0,0,-0.0219,-0.0215,-0.0203,-0.0198,-0.0192,-0.011,-0.0041,0.0021,-0.0043,-0.0092,-0.0042,-0.0041,0.0137,0.0156,0.0182,0.0326,0.0338,0.0293,0.03,0.0304,0.0307,0,0,0,0,0,0,0,-0.0223,-0.0218,-0.02,-0.0203,-0.0196,-0.0137,-0.0129,-0.0029,0.0026,-0.0087,-0.0082,-0.008,0.0142,0.0171,0.019,0.0342,0.0293,0.0302,0.0309,0.0313,0.0556,0.0556,0,0,0,0,0,0,-0.0257,-0.0223,-0.0204,-0.0198,-0.0211,-0.0138,-0.0129,-0.0132,0.0021,0.0042,-0.0081,-0.0076,0.0152,0.0177,0.02,0.0258,0.0304,0.0314,0.032,0.0556,0.0556,0.0556,0,0,0,0,0,0,-0.0258,-0.0256,-0.0209,-0.0212,-0.0203,-0.014,-0.0143,-0.013,-0.0106,0.0023,0.0049,-0.0072,0.0154,0.0185,0.0286,0.0271,0.0319,0.0329,0.0556,0.0556,0.0556,0.0385,0,0,0,0,0,0,-0.0259,-0.0257,-0.0267,-0.0215,-0.0204,-0.0193,-0.0144,-0.0129,-0.0109,-0.0101,0.0039,0.0066,0.0157,0.0269,0.0297,0.0287,0.0337,0.0556,0.0556,0.0556,0.0391,0.0379,0.0369,0,0,0,0,0,-0.026,-0.028,-0.0269,-0.0266,-0.0222,-0.0194,-0.0182,-0.013,-0.011,-0.0104,-0.0006,0.0062,0.0289,0.0278,0.0311,0.0303,0.0556,0.0556,0.0556,0.0396,0.0382,0.037,0,0,0,0,0,0,-0.0294,-0.0272,-0.0258,-0.0271,-0.0243,-0.0181,-0.0174,-0.0143,-0.0065,-0.0051,0.0071,0.0106,0.0187,0.0273,0.0258,0.0374,0.043,0.0437,0.0297,0.0285,0.0275,0.0262,0.0346,0,0,0,0,0,-0.0312,-0.0318,-0.0286,-0.0296,-0.0288,-0.0235,-0.0217,-0.0186,-0.0116,-0.0083,0.0009,0.0117,0.0212,0.0268,0.0367,0.0436,0.05,0.0452,0.0441,0.0431,0.0444,0.0503,0.0498,0.0556,0.0556,0.0556,0,0,-0.0327,-0.0317,-0.032,-0.0304,-0.0275,-0.0265,-0.0221,-0.0205,-0.0187,-0.006,-0.0,0.0087,0.0223,0.0295,0.0338,0.0365,0.0444,0.0431,0.0421,0.044,0.0503,0.0497,0.0491,0.0556,0.0556,0.0556,0,0,-0.0361,-0.0356,-0.037,-0.0355,-0.0331,-0.0296,-0.0301,-0.025,-0.0218,-0.0156,-0.0065,0.0008,0.0155,0.0236,0.0301,0.0296,0.0384,0.0324,0.0264,0.0319,0.0314,0.0311,0.0355,0.0357,0.0318,0.0318,0.0318,0,-0.038,-0.0394,-0.0369,-0.0376,-0.0367,-0.0318,-0.0323,-0.0285,-0.0206,-0.0175,-0.0154,0.0033,0.0128,0.0224,0.0216,0.0269,0.0315,0.0292,0.0301,0.0299,0.0299,0.0346,0.035,0.031,0.0311,0.0311,0.0312,0,-0.0419,-0.0427,-0.0436,-0.0427,-0.0412,-0.0412,-0.0367,-0.0343,-0.0304,-0.0256,-0.0173,-0.006,0.0054,0.0077,0.0151,0.0196,0.0232,0.0272,0.032,0.0282,0.0334,0.0342,0.0298,0.0301,0.0303,0.0305,0,0,-0.0463,-0.0464,-0.0465,-0.0469,-0.044,-0.0432,-0.0409,-0.0365,-0.0343,-0.0281,-0.0237,-0.0119,-0.0071,0.0007,0.0087,0.0128,0.014,0.0187,0.0193,0.0207,0.0253,0.0296,0.0309,0.0173,0.0174,0.0175,0.0279,0,-0.0496,-0.0529,-0.0509,-0.0522,-0.0533,-0.0485,-0.047,-0.0424,-0.0366,-0.0312,-0.0219,-0.014,-0.0092,-0.0047,-0.0004,0.0128,0.0158,0.0108,0.0312,0.0319,0.0341,0.0319,0.0338,0.0435,0.0287,0.0289,0.029,0,-0.0534,-0.0552,-0.0581,-0.0577,-0.0576,-0.0572,-0.053,-0.0504,-0.0417,-0.0372,-0.0293,-0.0207,-0.0115,-0.0084,0.008,0.0045,0.0133,0.0211,0.0218,0.0331,0.0376,0.0461,0.0456,0.0553,0.0302,0.0301,0.03,0,-0.0579,-0.0593,-0.062,-0.0621,-0.0611,-0.0608,-0.059,-0.0524,-0.0494,-0.04,-0.0362,-0.0245,-0.0168,-0.0057,0.0104,0.0094,0.0278,0.0292,0.0406,0.041,0.0509,0.052,0.061,0.0386,0.0386,0.0386,0.0385,0,-0.0624,-0.0642,-0.0647,-0.0666,-0.0692,-0.0659,-0.0654,-0.0617,-0.0547,-0.0498,-0.0397,-0.0324,-0.0158,-0.0027,0.0094,0.0282,0.0274,0.0402,0.0444,0.0448,0.0452,0.0612,0.065,0.039,0.0389,0.0388,0.0387,0,-0.067,-0.0673,-0.0706,-0.0715,-0.0718,-0.0735,-0.071,-0.0697,-0.0626,-0.0555,-0.0526,-0.0368,-0.0187,-0.0024,0.0188,0.0286,0.052,0.0513,0.0501,0.0539,0.0723,0.0751,0.0911,0.0978,0.0649,0.0651,0.0653,0,-0.0696,-0.0721,-0.0753,-0.0777,-0.0784,-0.0797,-0.0804,-0.0747,-0.0713,-0.0567,-0.053,-0.0347,-0.018,0.013,0.033,0.0548,0.0614,0.0678,0.0663,0.0742,0.0805,0.0809,0.0853,0.0718,0.072,0.0721,0.0722,0,-0.0743,-0.0754,-0.0785,-0.0844,-0.0865,-0.088,-0.0871,-0.0855,-0.0758,-0.0656,-0.0482,-0.0333,-0.0035,0.0249,0.051,0.0627,0.0747,0.0716,0.0813,0.0881,0.0881,0.0961,0.0628,0.0736,0.0735,0.0734,0.0733,0.0732,-0.0769,-0.0809,-0.0851,-0.09,-0.0928,-0.0941,-0.0923,-0.0839,-0.0744,-0.0486,-0.0416,-0.0057,0.0191,0.0581,0.0703,0.0934,0.0893,0.0994,0.1024,0.1024,0.108,0.0768,0.0914,0.0914,0.0913,0.0913,0.0913,0,-0.0799,-0.0844,-0.0901,-0.0951,-0.098,-0.0982,-0.0944,-0.0831,-0.0645,-0.0334,-0.0082,0.0366,0.0634,0.0875,0.1119,0.1234,0.1248,0.128,0.129,0.1324,0.1071,0.1066,0.1234,0.1234,0.1234,0.1234,0.1234,0.1234,-0.0816,-0.0879,-0.0913,-0.0972,-0.1001,-0.0988,-0.0947,-0.0681,-0.0416,0.0126,0.0546,0.0816,0.104,0.1271,0.1474,0.1488,0.1595,0.1568,0.1637,0.1454,0.1429,0.1405,0.141,0.1647,0.1648,0.1873,0.1875,0.1877]}],[{"header":{"parameterUnit":"m.s-1","parameterCategory":2,"la1":30.2991,"la2":30.254,"lo1":-89.0895,"lo2":-89.0444,"dy":0.0017,"dx":0.0017,"nx":28,"ny":28,"refTime":"2024-05-20T21:00:00:Z","depth":"2","parameterNumber":2,"parameterNumberName":"U-component_of_CURRENTS"},"data":[0,0,0,0,0,0,0,0,0,0,0,0,0,0,0,0,0,0,0,0,0,0,0,0,0,0,0,0,0,0,0,0,0,0,0,0,0,0,0,0,0,0,0,0,0,0,0,0,0,0,0,0,0,0,0,0,0,0,-0.2077,-0.2078,0,-0.2131,-0.2131,-0.2132,-0.2124,-0.2123,-0.2123,-0.2122,-0.2184,-0.2186,-0.2189,0,0,0,0,0,0,0,0,0,0,0,0,0,-0.1967,-0.1969,-0.2077,-0.2078,-0.2079,-0.2131,-0.2131,-0.2132,-0.2124,-0.2123,-0.2123,-0.2122,-0.2183,-0.2186,-0.2189,0,0,0,0,0,0,0,0,0,0,0,0,0,-0.2015,-0.197,-0.2077,-0.2083,-0.2084,-0.2131,-0.2131,-0.2132,-0.2124,-0.2123,-0.2122,-0.2121,-0.2182,-0.2186,-0.2189,-0.2232,0,0,-0.22,-0.2201,0,0,0,0,0,0,0,0,-0.2013,-0.2019,-0.2081,-0.2082,-0.2084,-0.2121,-0.2116,-0.2167,-0.2125,-0.2107,-0.2122,-0.2121,-0.2166,-0.2171,-0.218,-0.2235,-0.2238,-0.22,-0.2202,-0.2204,-0.2205,0,0,0,0,0,0,0,-0.2009,-0.2017,-0.2096,-0.2082,-0.2084,-0.2083,-0.2088,-0.2125,-0.214,-0.2108,-0.2108,-0.2118,-0.2166,-0.2177,-0.2182,-0.2239,-0.22,-0.2203,-0.2205,-0.2207,-0.2315,-0.2315,0,0,0,0,0,0,-0.2008,-0.2014,-0.2095,-0.2098,-0.2047,-0.2086,-0.2092,-0.2109,-0.214,-0.2144,-0.2119,-0.2118,-0.2172,-0.2178,-0.2184,-0.2187,-0.2204,-0.2207,-0.2209,-0.2314,-0.2315,-0.2316,0,0,0,0,0,0,-0.2006,-0.2015,-0.2092,-0.2058,-0.2068,-0.2089,-0.2108,-0.211,-0.2118,-0.2148,-0.2152,-0.2124,-0.2171,-0.2179,-0.2209,-0.2191,-0.2209,-0.2212,-0.2313,-0.2314,-0.2315,-0.2226,0,0,0,0,0,0,-0.2003,-0.2014,-0.202,-0.2059,-0.207,-0.2107,-0.2109,-0.2112,-0.2127,-0.2126,-0.2154,-0.2159,-0.2171,-0.2204,-0.2213,-0.2197,-0.2215,-0.2312,-0.2313,-0.2315,-0.2228,-0.2224,-0.2221,0,0,0,0,0,-0.1999,-0.2008,-0.2021,-0.203,-0.208,-0.2107,-0.2112,-0.2122,-0.2128,-0.2126,-0.2149,-0.2158,-0.2219,-0.2207,-0.2218,-0.2202,-0.2311,-0.2313,-0.2315,-0.223,-0.2225,-0.2221,0,0,0,0,0,0,-0.1962,-0.201,-0.2024,-0.2048,-0.2071,-0.2106,-0.211,-0.2126,-0.2144,-0.2144,-0.217,-0.2177,-0.2192,-0.2226,-0.2213,-0.2243,-0.2267,-0.2271,-0.2199,-0.2195,-0.2191,-0.2174,-0.2217,0,0,0,0,0,-0.196,-0.1979,-0.2022,-0.2038,-0.2052,-0.2085,-0.2097,-0.2108,-0.2134,-0.2141,-0.2162,-0.2191,-0.2211,-0.2224,-0.225,-0.2275,-0.2277,-0.2276,-0.2272,-0.2268,-0.2265,-0.2249,-0.2242,-0.2321,-0.2321,-0.2321,0,0,-0.195,-0.1979,-0.1989,-0.2031,-0.2052,-0.2069,-0.2088,-0.2107,-0.2112,-0.2148,-0.2158,-0.2179,-0.2217,-0.2228,-0.2239,-0.2251,-0.2246,-0.227,-0.2266,-0.2265,-0.225,-0.2242,-0.2234,-0.2323,-0.2322,-0.2322,0,0,-0.1938,-0.1967,-0.1977,-0.1999,-0.2033,-0.2054,-0.2061,-0.2097,-0.2101,-0.2125,-0.2141,-0.2147,-0.2201,-0.22,-0.2213,-0.2215,-0.2225,-0.2238,-0.2203,-0.2187,-0.2179,-0.2172,-0.2147,-0.2138,-0.2237,-0.2237,-0.2237,0,-0.1921,-0.1946,-0.1981,-0.1996,-0.2011,-0.2047,-0.2057,-0.2071,-0.2108,-0.2112,-0.2118,-0.2161,-0.2178,-0.218,-0.2172,-0.2199,-0.22,-0.2205,-0.2176,-0.217,-0.2164,-0.214,-0.2132,-0.2233,-0.2233,-0.2234,-0.2234,0,-0.1917,-0.1936,-0.1942,-0.1975,-0.1993,-0.2007,-0.2038,-0.2051,-0.2067,-0.2079,-0.2085,-0.2101,-0.2126,-0.2127,-0.2148,-0.2125,-0.214,-0.2164,-0.2173,-0.215,-0.2127,-0.212,-0.2227,-0.2228,-0.223,-0.2231,0,0,-0.188,-0.1929,-0.1931,-0.1946,-0.1984,-0.2002,-0.2012,-0.2031,-0.2042,-0.2047,-0.2051,-0.205,-0.2059,-0.2076,-0.2093,-0.2072,-0.2015,-0.2102,-0.2103,-0.205,-0.1976,-0.1909,-0.1895,-0.2036,-0.2035,-0.2034,-0.1968,0,-0.1862,-0.1885,-0.1914,-0.193,-0.1945,-0.1981,-0.1992,-0.2012,-0.203,-0.2042,-0.2033,-0.2045,-0.2041,-0.2053,-0.2025,-0.2038,-0.1997,-0.2031,-0.203,-0.203,-0.1951,-0.1884,-0.1757,-0.1681,-0.1961,-0.196,-0.1959,0,-0.1841,-0.1865,-0.1879,-0.1921,-0.1931,-0.1942,-0.1976,-0.1991,-0.2011,-0.2025,-0.202,-0.2035,-0.2006,-0.2013,-0.1966,-0.1994,-0.1971,-0.1962,-0.196,-0.1925,-0.195,-0.1758,-0.1659,-0.1947,-0.1948,-0.1949,-0.195,0,-0.1797,-0.1836,-0.1848,-0.1862,-0.1914,-0.1922,-0.1945,-0.1977,-0.1994,-0.2013,-0.2025,-0.2006,-0.1999,-0.1969,-0.1941,-0.1961,-0.1888,-0.1918,-0.1823,-0.1818,-0.1722,-0.1711,-0.1858,-0.1859,-0.1859,-0.1859,-0.1859,0,-0.1764,-0.1772,-0.183,-0.1837,-0.1855,-0.1898,-0.1917,-0.1943,-0.1977,-0.1982,-0.2007,-0.1996,-0.1989,-0.1956,-0.193,-0.184,-0.1871,-0.179,-0.1786,-0.1689,-0.1675,-0.1932,-0.1942,-0.1856,-0.1857,-0.1857,-0.1858,0,-0.1708,-0.1746,-0.1763,-0.1816,-0.1833,-0.1845,-0.19,-0.1911,-0.1954,-0.1962,-0.1965,-0.1981,-0.1925,-0.1902,-0.1852,-0.1811,-0.1751,-0.1711,-0.1589,-0.157,-0.1696,-0.1703,-0.1594,-0.1591,-0.1588,-0.1586,-0.1584,0,-0.1679,-0.1683,-0.1739,-0.1746,-0.1766,-0.1799,-0.1815,-0.1882,-0.1895,-0.1934,-0.1921,-0.1897,-0.1835,-0.1738,-0.1662,-0.1573,-0.1654,-0.1425,-0.1427,-0.1656,-0.1664,-0.1675,-0.1684,-0.1264,-0.1259,-0.1256,-0.1253,0,-0.1615,-0.1636,-0.1651,-0.1674,-0.1692,-0.1718,-0.1746,-0.1761,-0.1822,-0.1826,-0.1794,-0.1753,-0.1658,-0.1497,-0.1406,-0.1353,-0.1433,-0.1349,-0.1602,-0.1356,-0.134,-0.135,-0.1371,-0.1221,-0.1224,-0.1227,-0.1228,-0.123,-0.1553,-0.155,-0.1567,-0.1577,-0.1602,-0.16,-0.1575,-0.1612,-0.1611,-0.1572,-0.1617,-0.1497,-0.1456,-0.1224,-0.1145,-0.1092,-0.1195,-0.1156,-0.1169,-0.1185,-0.1164,-0.1144,-0.0984,-0.0986,-0.0987,-0.0989,-0.099,0,-0.146,-0.146,-0.1466,-0.1467,-0.144,-0.149,-0.1492,-0.143,-0.1374,-0.1372,-0.1313,-0.1123,-0.1012,-0.0981,-0.0835,-0.0808,-0.0822,-0.079,-0.081,-0.0841,-0.0868,-0.0834,-0.0565,-0.0564,-0.0563,-0.0562,0,0,-0.1408,-0.137,-0.1373,-0.1292,-0.1288,-0.1202,-0.1169,-0.1095,-0.1056,-0.0953,-0.0893,-0.094,-0.0938,-0.0748,-0.0703,-0.0607,-0.0723,-0.0578,-0.0916,-0.0969,-0.0996,-0.1072,-0.1052,0,0,0,0,0]},{"header":{"parameterUnit":"m.s-1","parameterCategory":2,"la1":30.2991,"la2":30.254,"lo1":-89.0895,"lo2":-89.0444,"dy":0.0017,"dx":0.0017,"nx":28,"ny":28,"refTime":"2024-05-20T21:00:00:Z","depth":"2","parameterNumber":3,"parameterNumberName":"V-component_of_CURRENTS"},"data":[0,0,0,0,0,0,0,0,0,0,0,0,0,0,0,0,0,0,0,0,0,0,0,0,0,0,0,0,0,0,0,0,0,0,0,0,0,0,0,0,0,0,0,0,0,0,0,0,0,0,0,0,0,0,0,0,0,0,-0.032,-0.032,0,-0.0241,-0.024,-0.0239,-0.0171,-0.0171,-0.0171,-0.017,-0.0012,-0.0009,-0.0005,0,0,0,0,0,0,0,0,0,0,0,0,0,-0.0347,-0.0347,-0.032,-0.032,-0.0319,-0.0241,-0.024,-0.0238,-0.0172,-0.0171,-0.017,-0.017,-0.0013,-0.0009,-0.0004,0,0,0,0,0,0,0,0,0,0,0,0,0,-0.0306,-0.0347,-0.032,-0.0278,-0.0274,-0.0241,-0.024,-0.0238,-0.0172,-0.0171,-0.017,-0.017,-0.0015,-0.0009,-0.0004,0.0017,0,0,0.0013,0.0016,0,0,0,0,0,0,0,0,-0.0308,-0.0305,-0.0285,-0.0281,-0.0276,-0.0218,-0.0191,-0.015,-0.0172,-0.0207,-0.017,-0.0169,-0.0076,-0.0065,-0.0049,0.0024,0.0031,0.0014,0.0017,0.002,0.0021,0,0,0,0,0,0,0,-0.0311,-0.0307,-0.0286,-0.0285,-0.0279,-0.0241,-0.0234,-0.0183,-0.0143,-0.0204,-0.02,-0.0196,-0.0073,-0.0055,-0.0045,0.0034,0.0014,0.0019,0.0022,0.0024,0.0154,0.0154,0,0,0,0,0,0,-0.0331,-0.0311,-0.0288,-0.0284,-0.0294,-0.0241,-0.0234,-0.0235,-0.0145,-0.0132,-0.0197,-0.0193,-0.0065,-0.0051,-0.0039,-0.0,0.002,0.0025,0.0028,0.0154,0.0154,0.0154,0,0,0,0,0,0,-0.0332,-0.0331,-0.0292,-0.0297,-0.029,-0.0242,-0.0243,-0.0234,-0.0217,-0.0141,-0.0125,-0.0191,-0.0064,-0.0047,0.0003,0.0006,0.0028,0.0033,0.0154,0.0154,0.0154,0.0072,0,0,0,0,0,0,-0.0334,-0.0331,-0.0339,-0.0299,-0.029,-0.028,-0.0244,-0.0233,-0.0217,-0.0212,-0.0131,-0.0115,-0.0062,-0.0006,0.0009,0.0015,0.0037,0.0154,0.0154,0.0154,0.0075,0.0069,0.0065,0,0,0,0,0,-0.0335,-0.0351,-0.034,-0.0338,-0.0303,-0.0281,-0.0273,-0.0234,-0.0218,-0.0215,-0.016,-0.0118,0.0005,-0.0002,0.0016,0.0023,0.0153,0.0154,0.0154,0.0077,0.007,0.0065,0,0,0,0,0,0,-0.0368,-0.0345,-0.0332,-0.0341,-0.0317,-0.0271,-0.0268,-0.0243,-0.0199,-0.0192,-0.0118,-0.0099,-0.0056,-0.0006,-0.0016,0.0061,0.0087,0.0091,0.0023,0.0018,0.0013,0.0004,0.0042,0,0,0,0,0,-0.0381,-0.0386,-0.0356,-0.0363,-0.0356,-0.0314,-0.0301,-0.0277,-0.0234,-0.0215,-0.0158,-0.0096,-0.0043,-0.0007,0.0044,0.0087,0.013,0.0105,0.01,0.0095,0.01,0.0157,0.0157,0.0154,0.0154,0.0154,0,0,-0.0395,-0.0385,-0.0387,-0.037,-0.0348,-0.034,-0.0304,-0.0292,-0.0277,-0.0203,-0.0166,-0.0116,-0.0038,0.0007,0.0033,0.0051,0.0116,0.0095,0.009,0.0099,0.0157,0.0157,0.0157,0.0154,0.0154,0.0154,0,0,-0.0425,-0.0419,-0.0431,-0.0417,-0.0396,-0.0367,-0.0369,-0.0328,-0.0302,-0.0266,-0.0209,-0.0159,-0.0079,-0.0019,0.0021,0.0021,0.0079,0.0036,0.0016,0.007,0.007,0.0071,0.011,0.0115,0.0043,0.0043,0.0043,0,-0.0444,-0.0452,-0.043,-0.0436,-0.0427,-0.0384,-0.0388,-0.0357,-0.0303,-0.0277,-0.0265,-0.0147,-0.0088,-0.0017,-0.0017,0.0011,0.0044,0.0029,0.0062,0.0064,0.0067,0.0106,0.0113,0.0039,0.0039,0.004,0.004,0,-0.0479,-0.0483,-0.0491,-0.0481,-0.0467,-0.0467,-0.0425,-0.0404,-0.0371,-0.0329,-0.0268,-0.0194,-0.0119,-0.0095,-0.0053,-0.0002,0.0014,0.0038,0.0072,0.0062,0.0104,0.0113,0.0033,0.0035,0.0036,0.0037,0,0,-0.0519,-0.0516,-0.0516,-0.0518,-0.0492,-0.0484,-0.0462,-0.042,-0.0398,-0.0344,-0.0303,-0.0218,-0.0179,-0.0131,-0.0074,-0.0022,0.0016,0.0011,0.0015,0.0039,0.0122,0.0143,0.0155,0.0042,0.0043,0.0044,0.0138,0,-0.0548,-0.0575,-0.0556,-0.0565,-0.0573,-0.0529,-0.0513,-0.047,-0.0417,-0.0368,-0.0286,-0.0229,-0.0191,-0.0158,-0.0104,-0.0008,0.0037,-0.0013,0.0138,0.0143,0.0155,0.0165,0.0135,0.0218,0.0147,0.0149,0.015,0,-0.0582,-0.0596,-0.0619,-0.061,-0.0609,-0.0605,-0.0564,-0.0539,-0.0458,-0.0418,-0.0345,-0.0278,-0.0188,-0.0164,-0.0015,-0.0051,0.0025,0.0093,0.0099,0.0157,0.018,0.0223,0.0237,0.0165,0.0164,0.0162,0.0161,0,-0.0623,-0.0631,-0.0652,-0.0652,-0.064,-0.0635,-0.0618,-0.0555,-0.0527,-0.0439,-0.0405,-0.0298,-0.0234,-0.0129,0.0008,-0.0002,0.0166,0.0176,0.0264,0.0266,0.0292,0.0294,0.0272,0.0272,0.0272,0.0272,0.0271,0,-0.0662,-0.0675,-0.0677,-0.0692,-0.0714,-0.0682,-0.0675,-0.064,-0.0575,-0.0532,-0.0435,-0.0372,-0.0221,-0.0105,0.0003,0.0163,0.0165,0.0267,0.0298,0.0261,0.0259,0.0258,0.0255,0.0275,0.0274,0.0274,0.0273,0,-0.0703,-0.0703,-0.073,-0.0734,-0.0737,-0.0751,-0.0727,-0.0714,-0.0647,-0.0585,-0.0559,-0.0415,-0.0258,-0.011,0.0079,0.0165,0.031,0.0362,0.03,0.0323,0.037,0.0362,0.047,0.0471,0.0473,0.0474,0.0475,0,-0.0726,-0.0747,-0.0774,-0.0796,-0.08,-0.0811,-0.0817,-0.0762,-0.073,-0.0603,-0.0571,-0.041,-0.0272,0.0002,0.0175,0.0367,0.0362,0.0439,0.0423,0.0374,0.0393,0.0383,0.0373,0.042,0.042,0.042,0.0421,0,-0.0769,-0.0779,-0.0805,-0.0859,-0.0878,-0.0891,-0.0882,-0.0869,-0.0781,-0.07,-0.0557,-0.0432,-0.0169,0.0054,0.0284,0.0382,0.0405,0.0454,0.0441,0.0369,0.0334,0.035,0.0341,0.0424,0.0424,0.0424,0.0423,0.0423,-0.0795,-0.0831,-0.0868,-0.0914,-0.094,-0.0954,-0.095,-0.0905,-0.0837,-0.07,-0.0568,-0.0365,-0.0146,0.0188,0.0354,0.0475,0.0476,0.0502,0.0498,0.0495,0.0468,0.0436,0.054,0.054,0.054,0.054,0.0541,0,-0.0828,-0.0867,-0.0918,-0.0966,-0.0997,-0.0997,-0.0977,-0.0941,-0.0845,-0.0722,-0.0555,-0.0281,-0.0022,0.0178,0.0392,0.0539,0.051,0.054,0.0483,0.0479,0.0476,0.0445,0.0513,0.0513,0.0514,0.0514,0,0,-0.0845,-0.0903,-0.0933,-0.0995,-0.1025,-0.1035,-0.1016,-0.0938,-0.0848,-0.0691,-0.0543,-0.033,-0.0047,0.0109,0.0296,0.0401,0.0383,0.0393,0.0398,0.0301,0.0296,0.044,0.0387,0,0,0,0,0]}],[{"header":{"parameterUnit":"m.s-1","parameterCategory":2,"la1":30.2991,"la2":30.254,"lo1":-89.0895,"lo2":-89.0444,"dy":0.0017,"dx":0.0017,"nx":28,"ny":28,"refTime":"2024-05-20T21:00:00:Z","depth":"4","parameterNumber":2,"parameterNumberName":"U-component_of_CURRENTS"},"data":[0,0,0,0,0,0,0,0,0,0,0,0,0,0,0,0,0,0,0,0,0,0,0,0,0,0,0,0,0,0,0,0,0,0,0,0,0,0,0,0,0,0,0,0,0,0,0,0,0,0,0,0,0,0,0,0,0,0,-0.1487,-0.1488,0,-0.1543,-0.1544,-0.1544,-0.1567,-0.1568,-0.1568,-0.1568,-0.1511,-0.1509,-0.1507,0,0,0,0,0,0,0,0,0,0,0,0,0,-0.137,-0.1372,-0.1487,-0.1488,-0.1489,-0.1543,-0.1544,-0.1544,-0.1567,-0.1568,-0.1568,-0.1568,-0.1512,-0.1509,-0.1507,0,0,0,0,0,0,0,0,0,0,0,0,0,-0.1419,-0.1372,-0.1487,-0.151,-0.1513,-0.1543,-0.1544,-0.1544,-0.1567,-0.1568,-0.1568,-0.1568,-0.1512,-0.151,-0.1507,-0.1483,0,0,-0.1499,-0.1498,0,0,0,0,0,0,0,0,-0.1416,-0.1423,-0.1506,-0.1509,-0.1512,-0.1552,-0.1482,-0.1519,-0.1567,-0.1542,-0.1568,-0.1569,-0.1517,-0.1514,-0.1519,-0.148,-0.1477,-0.1499,-0.1497,-0.1496,-0.1495,0,0,0,0,0,0,0,-0.1413,-0.142,-0.1505,-0.1507,-0.1511,-0.1508,-0.1515,-0.1489,-0.1521,-0.1545,-0.1548,-0.156,-0.1517,-0.1522,-0.1518,-0.1477,-0.1499,-0.1496,-0.1495,-0.1494,-0.1459,-0.146,0,0,0,0,0,0,-0.1416,-0.1417,-0.1503,-0.1507,-0.1469,-0.1511,-0.1518,-0.1536,-0.1524,-0.1525,-0.156,-0.1561,-0.1526,-0.1521,-0.1516,-0.1533,-0.1496,-0.1493,-0.1492,-0.1459,-0.146,-0.146,0,0,0,0,0,0,-0.1413,-0.1423,-0.1501,-0.1466,-0.1477,-0.1513,-0.1532,-0.1537,-0.1568,-0.1538,-0.1536,-0.1589,-0.1526,-0.1519,-0.1509,-0.1529,-0.1492,-0.149,-0.1458,-0.1459,-0.146,-0.1537,0,0,0,0,0,0,-0.1409,-0.1422,-0.1441,-0.1467,-0.1479,-0.1529,-0.1532,-0.1538,-0.1575,-0.1578,-0.1561,-0.1555,-0.1526,-0.1514,-0.1507,-0.1525,-0.1488,-0.1457,-0.1458,-0.146,-0.1534,-0.1541,-0.1546,0,0,0,0,0,-0.1405,-0.1423,-0.1441,-0.1452,-0.1503,-0.153,-0.1536,-0.1559,-0.1577,-0.1589,-0.158,-0.1557,-0.1517,-0.1512,-0.1504,-0.1521,-0.1456,-0.1458,-0.146,-0.1531,-0.1539,-0.1546,0,0,0,0,0,0,-0.1384,-0.1429,-0.1449,-0.1482,-0.1512,-0.1536,-0.1555,-0.1576,-0.1583,-0.1588,-0.1562,-0.1555,-0.155,-0.1526,-0.1521,-0.1515,-0.1484,-0.1484,-0.1541,-0.1549,-0.1555,-0.1543,-0.1486,0,0,0,0,0,-0.139,-0.1417,-0.1456,-0.1485,-0.1502,-0.1536,-0.1555,-0.1574,-0.1584,-0.1591,-0.1585,-0.157,-0.1546,-0.1542,-0.1514,-0.1513,-0.1482,-0.152,-0.1526,-0.1532,-0.1517,-0.1502,-0.1505,-0.1465,-0.1465,-0.1465,0,0,-0.1392,-0.1421,-0.1438,-0.1483,-0.1509,-0.1531,-0.1548,-0.1584,-0.1602,-0.1578,-0.1602,-0.1588,-0.1548,-0.1544,-0.1542,-0.1532,-0.1529,-0.1534,-0.1539,-0.152,-0.1504,-0.1507,-0.1511,-0.1467,-0.1466,-0.1466,0,0,-0.1396,-0.1436,-0.1455,-0.1481,-0.1526,-0.1544,-0.1563,-0.1604,-0.1623,-0.1642,-0.1626,-0.1627,-0.1607,-0.1586,-0.1568,-0.1592,-0.1558,-0.1595,-0.1626,-0.1612,-0.1615,-0.1617,-0.1594,-0.1593,-0.1607,-0.1607,-0.1607,0,-0.1398,-0.1429,-0.1464,-0.1486,-0.1509,-0.1553,-0.1574,-0.1597,-0.1632,-0.1641,-0.1655,-0.1639,-0.162,-0.16,-0.1616,-0.1606,-0.1591,-0.1603,-0.1621,-0.1622,-0.1623,-0.1598,-0.1596,-0.1611,-0.1611,-0.161,-0.161,0,-0.1406,-0.144,-0.1454,-0.1495,-0.1521,-0.155,-0.1586,-0.1619,-0.1656,-0.1672,-0.1684,-0.1671,-0.1658,-0.1666,-0.1649,-0.1651,-0.1636,-0.1627,-0.1603,-0.1632,-0.1603,-0.16,-0.1617,-0.1615,-0.1614,-0.1613,0,0,-0.1384,-0.1447,-0.1456,-0.148,-0.1532,-0.1554,-0.1587,-0.1621,-0.1647,-0.1681,-0.1701,-0.169,-0.17,-0.168,-0.1674,-0.1676,-0.1685,-0.1667,-0.1665,-0.1646,-0.1653,-0.1541,-0.1527,-0.169,-0.169,-0.169,-0.1634,0,-0.1382,-0.1421,-0.1453,-0.1494,-0.1517,-0.1564,-0.159,-0.1626,-0.1661,-0.1691,-0.1693,-0.1701,-0.17,-0.171,-0.171,-0.1685,-0.1678,-0.1699,-0.1623,-0.162,-0.152,-0.1519,-0.1689,-0.1632,-0.1631,-0.163,-0.163,0,-0.137,-0.1403,-0.1442,-0.1501,-0.1516,-0.1546,-0.1602,-0.1631,-0.1669,-0.1695,-0.171,-0.1715,-0.1714,-0.1719,-0.1684,-0.1703,-0.1678,-0.1663,-0.166,-0.1519,-0.1502,-0.1592,-0.1623,-0.1624,-0.1624,-0.1625,-0.1625,0,-0.1329,-0.1392,-0.1426,-0.1448,-0.1517,-0.1546,-0.1583,-0.1632,-0.1659,-0.1699,-0.1718,-0.1718,-0.1718,-0.1698,-0.1665,-0.1683,-0.1621,-0.1635,-0.1505,-0.1497,-0.1583,-0.1581,-0.1599,-0.16,-0.16,-0.16,-0.16,0,-0.1299,-0.133,-0.1418,-0.1436,-0.1481,-0.1534,-0.1579,-0.1617,-0.1665,-0.1675,-0.1716,-0.1707,-0.1717,-0.1686,-0.166,-0.1555,-0.1608,-0.149,-0.1468,-0.1618,-0.1621,-0.1581,-0.158,-0.1598,-0.1598,-0.1599,-0.1599,0,-0.1242,-0.1301,-0.1347,-0.1432,-0.1462,-0.1495,-0.1576,-0.1597,-0.1655,-0.1669,-0.168,-0.1698,-0.1643,-0.1628,-0.1581,-0.1525,-0.1456,-0.1406,-0.1554,-0.1545,-0.1347,-0.1351,-0.1255,-0.125,-0.1247,-0.1243,-0.1241,0,-0.1212,-0.1233,-0.1335,-0.1362,-0.1405,-0.1467,-0.1499,-0.1579,-0.1593,-0.1636,-0.162,-0.1602,-0.1592,-0.142,-0.1431,-0.1349,-0.1334,-0.1298,-0.1332,-0.1319,-0.1309,-0.1319,-0.1327,-0.1235,-0.1234,-0.1232,-0.1231,0,-0.1149,-0.12,-0.1237,-0.1297,-0.1344,-0.1388,-0.1437,-0.1441,-0.1506,-0.158,-0.1503,-0.1454,-0.1382,-0.1326,-0.1262,-0.1214,-0.1325,-0.1258,-0.1266,-0.1298,-0.1293,-0.1289,-0.1302,-0.1218,-0.122,-0.1221,-0.1222,0,-0.11,-0.1114,-0.1168,-0.1206,-0.1264,-0.1269,-0.1318,-0.1315,-0.134,-0.1394,-0.136,-0.1335,-0.1358,-0.1253,-0.1199,-0.1133,-0.1123,-0.1098,-0.1115,-0.113,-0.1113,-0.1091,-0.0915,0,0,0,0,0,-0.104,-0.1038,-0.1067,-0.1099,-0.115,-0.1175,-0.125,-0.1298,-0.1371,-0.1277,-0.1314,-0.1237,-0.1142,-0.1138,-0.1039,-0.1146,-0.1135,-0.103,-0.1118,-0.1144,-0.1159,-0.1151,0,0,0,0,0,0,-0.0997,-0.1021,-0.1028,-0.0992,-0.0987,-0.1025,-0.1063,-0.1119,-0.1076,-0.1151,-0.1098,-0.1156,-0.1076,-0.1157,-0.1005,-0.1004,-0.1034,-0.1031,-0.1028,-0.1135,-0.1149,-0.1161,-0.1158,0,0,0,0,0]},{"header":{"parameterUnit":"m.s-1","parameterCategory":2,"la1":30.2991,"la2":30.254,"lo1":-89.0895,"lo2":-89.0444,"dy":0.0017,"dx":0.0017,"nx":28,"ny":28,"refTime":"2024-05-20T21:00:00:Z","depth":"4","parameterNumber":3,"parameterNumberName":"V-component_of_CURRENTS"},"data":[0,0,0,0,0,0,0,0,0,0,0,0,0,0,0,0,0,0,0,0,0,0,0,0,0,0,0,0,0,0,0,0,0,0,0,0,0,0,0,0,0,0,0,0,0,0,0,0,0,0,0,0,0,0,0,0,0,0,-0.0248,-0.0247,0,-0.0206,-0.0205,-0.0205,-0.0168,-0.0167,-0.0167,-0.0167,-0.0145,-0.0144,-0.0144,0,0,0,0,0,0,0,0,0,0,0,0,0,-0.0264,-0.0264,-0.0248,-0.0247,-0.0247,-0.0206,-0.0205,-0.0204,-0.0168,-0.0167,-0.0167,-0.0166,-0.0145,-0.0144,-0.0144,0,0,0,0,0,0,0,0,0,0,0,0,0,-0.0242,-0.0264,-0.0248,-0.0224,-0.0222,-0.0206,-0.0205,-0.0204,-0.0168,-0.0167,-0.0167,-0.0166,-0.0145,-0.0144,-0.0144,-0.0151,0,0,-0.0143,-0.0142,0,0,0,0,0,0,0,0,-0.0244,-0.0242,-0.0228,-0.0226,-0.0223,-0.0192,-0.0203,-0.0188,-0.0168,-0.0187,-0.0167,-0.0166,-0.0164,-0.0162,-0.0153,-0.015,-0.0149,-0.0143,-0.0142,-0.0142,-0.0142,0,0,0,0,0,0,0,-0.0245,-0.0243,-0.023,-0.0228,-0.0225,-0.0205,-0.0202,-0.0199,-0.0178,-0.0185,-0.0183,-0.018,-0.0162,-0.0153,-0.0152,-0.0149,-0.0143,-0.0142,-0.0142,-0.0142,-0.0151,-0.0151,0,0,0,0,0,0,-0.0255,-0.0245,-0.0231,-0.0229,-0.0234,-0.0206,-0.0201,-0.0202,-0.0177,-0.0173,-0.0181,-0.0179,-0.0154,-0.0153,-0.0151,-0.0138,-0.0142,-0.0142,-0.0141,-0.015,-0.0151,-0.0152,0,0,0,0,0,0,-0.0256,-0.0254,-0.0233,-0.0236,-0.0232,-0.0206,-0.0206,-0.0201,-0.0195,-0.0174,-0.017,-0.0181,-0.0154,-0.0152,-0.0147,-0.0138,-0.0142,-0.0141,-0.015,-0.0151,-0.0151,-0.0126,0,0,0,0,0,0,-0.0256,-0.0255,-0.0262,-0.0237,-0.0233,-0.0229,-0.0207,-0.0201,-0.0195,-0.0192,-0.0173,-0.017,-0.0153,-0.0148,-0.0147,-0.0138,-0.0141,-0.0149,-0.015,-0.0151,-0.0126,-0.0126,-0.0125,0,0,0,0,0,-0.0257,-0.0269,-0.0263,-0.0262,-0.0243,-0.0229,-0.0225,-0.0204,-0.0196,-0.0196,-0.0179,-0.0171,-0.0153,-0.0148,-0.0147,-0.0137,-0.0149,-0.015,-0.0151,-0.0126,-0.0126,-0.0125,0,0,0,0,0,0,-0.0281,-0.0266,-0.0259,-0.0266,-0.0252,-0.0224,-0.0226,-0.0211,-0.0198,-0.0198,-0.0174,-0.017,-0.0164,-0.0163,-0.0158,-0.0146,-0.0151,-0.0152,-0.0133,-0.0133,-0.0132,-0.0137,-0.014,0,0,0,0,0,-0.0292,-0.0296,-0.0276,-0.0283,-0.0279,-0.0255,-0.0249,-0.0235,-0.0218,-0.0211,-0.0194,-0.0182,-0.0168,-0.016,-0.0155,-0.0149,-0.0131,-0.0145,-0.0145,-0.0144,-0.0149,-0.0101,-0.0095,-0.0155,-0.0155,-0.0155,0,0,-0.0303,-0.0296,-0.0299,-0.0289,-0.0278,-0.0274,-0.025,-0.0247,-0.0238,-0.0213,-0.0202,-0.0185,-0.017,-0.0155,-0.0153,-0.015,-0.012,-0.0146,-0.0145,-0.0151,-0.0101,-0.0095,-0.0089,-0.0156,-0.0156,-0.0156,0,0,-0.0327,-0.0324,-0.0334,-0.0326,-0.0315,-0.0297,-0.0299,-0.0275,-0.0259,-0.0249,-0.0223,-0.0195,-0.019,-0.0154,-0.0141,-0.0141,-0.0123,-0.0152,-0.0143,-0.0095,-0.0089,-0.0083,-0.0052,-0.0044,-0.0145,-0.0145,-0.0145,0,-0.0342,-0.0349,-0.0335,-0.0342,-0.0337,-0.031,-0.0315,-0.0295,-0.027,-0.0253,-0.025,-0.0204,-0.0183,-0.0142,-0.0136,-0.0135,-0.0119,-0.0139,-0.0091,-0.0085,-0.008,-0.005,-0.0041,-0.0144,-0.0144,-0.0144,-0.0144,0,-0.0369,-0.0375,-0.0382,-0.0378,-0.0371,-0.0373,-0.0345,-0.0333,-0.0312,-0.0283,-0.0248,-0.0208,-0.0177,-0.0161,-0.0146,-0.0098,-0.0103,-0.0096,-0.0084,-0.0072,-0.0042,-0.0033,-0.0143,-0.0143,-0.0143,-0.0144,0,0,-0.0398,-0.0401,-0.0402,-0.0406,-0.0391,-0.0388,-0.0373,-0.0343,-0.0328,-0.0291,-0.0259,-0.0208,-0.018,-0.0164,-0.013,-0.008,-0.0015,-0.0075,-0.0073,-0.0031,0.0078,0.0057,0.0065,0.0002,0.0004,0.0005,0.0085,0,-0.0421,-0.0445,-0.0432,-0.0444,-0.0451,-0.0422,-0.0413,-0.0382,-0.0344,-0.0307,-0.0243,-0.021,-0.0183,-0.0163,-0.0106,-0.0043,0.0008,-0.0038,0.0046,0.0048,0.0041,0.0075,0.001,0.0091,0.0093,0.0095,0.0096,0,-0.0445,-0.0458,-0.048,-0.0478,-0.0478,-0.0481,-0.0453,-0.0437,-0.0374,-0.0344,-0.0285,-0.0241,-0.016,-0.0144,-0.0019,-0.0053,0.0008,0.0061,0.0066,0.0042,0.0045,0.0074,0.0112,0.0111,0.0109,0.0108,0.0107,0,-0.0472,-0.0484,-0.0504,-0.0506,-0.0503,-0.0505,-0.0497,-0.0451,-0.043,-0.0361,-0.0335,-0.0244,-0.0196,-0.0105,-0.0001,-0.0008,0.0132,0.0139,0.018,0.0179,0.0163,0.0156,0.0229,0.0229,0.0228,0.0228,0.0228,0,-0.0494,-0.051,-0.0525,-0.0538,-0.0563,-0.0543,-0.0545,-0.052,-0.047,-0.0438,-0.0358,-0.0308,-0.0184,-0.009,-0.0001,0.0112,0.0134,0.0186,0.0204,0.0169,0.0162,0.0169,0.0161,0.0231,0.0231,0.023,0.0229,0,-0.0516,-0.0525,-0.0554,-0.057,-0.058,-0.0597,-0.0591,-0.0581,-0.0532,-0.0485,-0.0465,-0.0347,-0.0227,-0.0107,0.0049,0.0108,0.022,0.0254,0.0199,0.0212,0.0234,0.0226,0.0311,0.0311,0.0311,0.0311,0.0311,0,-0.0526,-0.0546,-0.059,-0.0616,-0.0629,-0.0648,-0.066,-0.0623,-0.0598,-0.0502,-0.0475,-0.0355,-0.027,-0.0059,0.0056,0.0218,0.0238,0.0286,0.0271,0.0237,0.0246,0.0238,0.023,0.0312,0.0312,0.0312,0.0312,0,-0.0546,-0.0569,-0.0596,-0.0659,-0.0687,-0.0707,-0.0711,-0.0697,-0.0633,-0.0591,-0.0463,-0.0344,-0.0209,-0.0055,0.0065,0.0182,0.025,0.0287,0.0287,0.0274,0.0238,0.0245,0.0238,0.0312,0.0312,0.0312,0.0312,0,-0.0561,-0.0593,-0.0639,-0.0685,-0.073,-0.0748,-0.0746,-0.0697,-0.0661,-0.0543,-0.0503,-0.0341,-0.0242,-0.0072,0.0043,0.0147,0.0174,0.0202,0.0207,0.0208,0.0148,0.0085,0.0136,0,0,0,0,0,-0.0571,-0.0608,-0.066,-0.071,-0.0754,-0.0774,-0.0768,-0.0748,-0.0687,-0.0599,-0.0543,-0.0409,-0.021,-0.0115,-0.0012,0.0019,0.0166,0.014,0.0194,0.0313,0.0313,0.0257,0,0,0,0,0,0,-0.0579,-0.0633,-0.066,-0.0716,-0.0752,-0.0788,-0.0785,-0.0746,-0.068,-0.0602,-0.049,-0.0401,-0.021,-0.0272,-0.0016,0.0018,0.0062,0.0242,0.0244,0.0313,0.0313,0.0313,0.0256,0,0,0,0,0]}]]